{"data":{"norad_id":49417,"intl_designator":"2021-104K","name":"STARLINK-3154","alt_names":[],"object_type":"PAYLOAD","status":"ACTIVE","operator":null,"country":"US","launch_date":"2021-11-13","launch_site_code":"AFETR","launch_vehicle":null,"mission":null,"orbit_class":"UNKNOWN","rcs_meters":null,"size_class":null,"mass_kg":null,"dimensions":null,"purposes":["comms"],"wikipedia_slug":null,"has_3d_model":false,"image_url":null,"decayed_at":null,"tle_current":{"epoch":"2026-09-20T03:04:06.138048Z","epoch_age_seconds":73456,"freshness":"FRESH","line1":"1 49417U 21104K   26263.12784882 -.00002225  00000+0 -54796-4 0  9999","line2":"2 49417  53.1616  53.8084 0001189  86.0894 274.0245 15.34373197268284","mean_motion":15.34373197,"eccentricity":0.0001189,"inclination_deg":53.1616,"raan_deg":53.8084,"arg_perigee_deg":86.0894,"mean_anomaly_deg":274.0245,"bstar":-5.4796e-5,"rev_number":26828,"period_min":93.849397448775,"perigee_km":461.96952015448,"apogee_km":463.59629090801,"semimajor_km":6840.9199055312,"source":"CELESTRAK","updated_at":"2026-09-20T09:00:39.256696Z"}}}